TimePDT,TemperatureF,Dew PointF,Humidity,Sea Level PressureIn,VisibilityMPH,Wind Direction,Wind SpeedMPH,Gust SpeedMPH,PrecipitationIn,Events,Conditions,WindDirDegrees,DateUTC
12:53 AM,46.0,37.0,71,30.04,10.0,SSW,5.8,-,N/A,,Scattered Clouds,200,2013-03-16 07:53:00
1:53 AM,45.0,36.0,71,30.02,10.0,WNW,6.9,-,N/A,,Clear,290,2013-03-16 08:53:00
2:53 AM,46.0,35.1,66,30.02,10.0,Calm,Calm,-,N/A,,Clear,0,2013-03-16 09:53:00
3:53 AM,39.0,34.0,82,30.00,10.0,Calm,Calm,-,N/A,,Partly Cloudy,0,2013-03-16 10:53:00
4:53 AM,35.1,30.9,85,29.99,10.0,SE,4.6,-,N/A,,Scattered Clouds,140,2013-03-16 11:53:00
5:53 AM,35.1,32.0,89,29.98,10.0,SW,4.6,-,N/A,,Clear,230,2013-03-16 12:53:00
6:53 AM,37.0,33.1,86,29.97,10.0,Calm,Calm,-,N/A,,Clear,0,2013-03-16 13:53:00
7:53 AM,37.9,34.0,86,29.96,10.0,Calm,Calm,-,N/A,,Clear,0,2013-03-16 14:53:00
8:53 AM,39.0,35.1,86,29.96,10.0,NE,3.5,-,N/A,,Clear,50,2013-03-16 15:53:00
9:53 AM,39.9,36.0,86,29.96,10.0,Calm,Calm,-,N/A,,Clear,0,2013-03-16 16:53:00
10:53 AM,42.1,37.0,82,29.94,10.0,Calm,Calm,-,N/A,,Clear,0,2013-03-16 17:53:00
11:53 AM,48.0,39.0,71,29.91,10.0,Calm,Calm,-,N/A,,Clear,0,2013-03-16 18:53:00
12:53 PM,55.0,33.1,43,29.87,10.0,SW,17.3,-,N/A,,Clear,230,2013-03-16 19:53:00
1:53 PM,55.9,32.0,40,29.85,10.0,WSW,17.3,-,N/A,,Clear,240,2013-03-16 20:53:00
2:53 PM,54.0,35.1,49,29.81,10.0,SW,17.3,-,N/A,,Scattered Clouds,220,2013-03-16 21:53:00
3:53 PM,54.0,34.0,47,29.79,10.0,SSW,11.5,-,N/A,,Overcast,210,2013-03-16 22:53:00
4:53 PM,53.1,34.0,48,29.76,10.0,South,15.0,-,N/A,,Overcast,190,2013-03-16 23:53:00
5:34 PM,48.2,35.6,62,29.74,10.0,WNW,18.4,26.5,0.02,Rain,Light Rain,300,2013-03-17 00:34:00
5:53 PM,48.9,35.1,59,29.75,10.0,West,16.1,20.7,0.02,,Mostly Cloudy,280,2013-03-17 00:53:00
6:53 PM,46.9,30.9,54,29.75,10.0,WSW,12.7,-,N/A,,Scattered Clouds,250,2013-03-17 01:53:00
7:53 PM,46.9,27.0,46,29.75,10.0,West,17.3,-,N/A,,Overcast,270,2013-03-17 02:53:00
8:53 PM,45.0,21.0,39,29.75,10.0,West,17.3,-,N/A,,Overcast,260,2013-03-17 03:53:00
9:53 PM,42.1,21.0,43,29.77,10.0,West,15.0,-,N/A,,Clear,280,2013-03-17 04:53:00
10:53 PM,41.0,21.9,47,29.79,10.0,WNW,13.8,-,N/A,,Clear,300,2013-03-17 05:53:00
11:53 PM,39.0,23.0,53,29.81,10.0,West,17.3,27.6,N/A,,Clear,280,2013-03-17 06:53:00